Regional Weather Roundup
Issued by NWS

Home | Current Version | Previous Version | Graphics & Text | Print | Product List | Glossary On
Versions: 1 2 3 4 5 6 7 8 9 10 11 12 13 14 15 16 17 18 19 20 21 22 23 24 25 26 27 28 29 30 31 32 33 34 35 36 37 38 39 40 41 42 43 44 45 46 47 48 49 50
042
ASUS44 KLIX 220105
RWRLA
LOUISIANA WEATHER ROUNDUP
NATIONAL WEATHER SERVICE NEW ORLEANS LA
700 PM CST FRI NOV 21 2014

NOTE: "FAIR" INDICATES FEW OR NO CLOUDS BELOW 12,000 FEET WITH NO
      SIGNIFICANT WEATHER AND/OR OBSTRUCTIONS TO VISIBILITY.
      SKY/WX - SKY CONDITION AND SIGNIFICANT WEATHER.
      TMP - AIR TEMPERATURE.    DP   - DEWPOINT TEMPERATURE.
      RH  - RELATIVE HUMIDITY.  PRES - PRESSURE.
      HX  - HEAT INDEX.         WCI  - WIND CHILL INDEX.

*  THESE STATIONS ARE NOT NWS OR FAA STATIONS AND ARE NOT UNDER
   NWS QUALITY CONTROL.

LAZ040-048-061>063-065-066-069-220200-
SOUTHEAST LOUISIANA

CITY           SKY/WX    TMP DP  RH WIND       PRES   REMARKS
N.O. AUDUBON     N/A     61  55  81 MISG        N/A
N.O. INTL ARPT PTCLDY    60  53  77 E9        30.27R
N.O. LAKEFRONT CLEAR     59  53  80 E10       30.28R
N.O. DOWNTOWN* FAIR      61  50  67 CALM      30.28S
SLIDELL        CLEAR     58  49  72 CALM      30.28S
BATON ROUGE    CLOUDY    62  52  69 E10       30.25S
BOOTHVILLE     CLEAR     62  53  72 E9        30.26S
BELLE CHASSE   CLEAR     57  51  80 E6        30.27R
BOGALUSA*        N/A     60  43  54 SE3       30.30R
NEW ROADS*     CLOUDY    63  51  66 E8        30.26R
GONZALES*      FAIR      60  55  84 E3        30.26R
HAMMOND*       CLEAR     61  50  67 SE6       30.28F
HOUMA*         CLEAR     58  50  75 E7        30.25S
PORT FOURCHON* PTCLDY    64  54  68 E13       30.27S

$$

LAZ041-044-053-054-220200-
SOUTHWEST LOUISIANA

CITY           SKY/WX    TMP DP  RH WIND       PRES   REMARKS
LAKE CHARLES   CLOUDY    62  53  72 SE14      30.19R
LAFAYETTE      PTCLDY    63  47  55 CALM      30.24R
PATTERSON      CLEAR     55  48  76 E5        30.27R
SALT POINT       N/A     62  51  67 E3        30.23R
NEW IBERIA     PTCLDY    58  49  72 E7        30.24R
CHENAULT AIRPK NOT AVBL

$$

LAZ027-028-220200-
CENTRAL LOUISIANA

CITY           SKY/WX    TMP DP  RH WIND       PRES   REMARKS
FORT POLK      CLOUDY    62  50  63 SE8       30.20R
ALEXANDRIA INT CLOUDY    64  46  52 E10       30.20R
ALEXANDRIA     CLOUDY    65  45  48 SE10      30.22R

$$

LAZ001-002-220200-
NORTHWEST LOUISIANA

CITY           SKY/WX    TMP DP  RH WIND       PRES   REMARKS
SHREVEPORT     CLOUDY    60  53  77 SE13      30.17S
BARKSDALE AFB  MOCLDY    59  52  76 S10       30.20S
DTN SHREVEPORT CLOUDY    59  52  77 SE7       30.19S

$$

LAZ014-016-220200-
NORTHEAST LOUISIANA

CITY           SKY/WX    TMP DP  RH WIND       PRES   REMARKS
MONROE         CLOUDY    63  48  58 CALM      30.25R
TALLULAH       MOCLDY    57  49  74 E3        30.25R

$$




USA.gov is the U.S. government's official web portal to all federal, state and local government web resources and services.